#timestamp,LO_Frequency,Hit,StdDev 
1667988015.1,286047004.5,N
1667988016.0,286047004.5,N
1667988035.8,286047006.5,N
1667988055.7,286047008.3,N
1667988075.5,286047014.5,N
1667988095.3,286047018.1,N
1667988115.2,286047021.6,N
1667988135.0,286047019.0,N
1667988135.9,286047019.0,N
1667988155.8,286047016.4,N
1667988175.6,286047014.2,N
1667988195.4,286047008.2,N
1667988215.3,286047002.7,N
1667988235.1,286046997.2,N
1667988255.8,286046990.6,N
1667988275.7,286046985.9,N
1667988295.5,286046984.0,N
1667988315.4,286046983.4,N
1667988335.2,286046982.6,N
1667988355.0,286046980.8,N
1667988355.9,286046980.8,N
1667988375.8,286046989.2,N
1667988395.6,286046994.6,N
1667988415.5,286046986.6,N
1667988435.3,286046974.4,N
1667988455.1,286046968.2,N
1667988475.9,286046968.2,N
1667988495.7,286046966.3,N
1667988515.5,286046964.1,N
1667988535.4,286046961.1,N
1667988555.2,286046968.6,N
1667988575.1,286046972.3,N
1667988576.0,286046972.3,N
1667988595.8,286046977.6,N
1667988615.6,286046979.4,N
1667988635.5,286046974.4,N
1667988655.3,286046967.0,N
1667988675.1,286046958.8,N
1667988695.9,286046956.3,N
1667988715.7,286046949.3,Y
1667988735.6,286046966.5,P
1667988755.4,286046963.0,P
1667988775.2,286046959.3,P
1667988795.1,286046965.8,Y
1667988796.0,286046965.8,P
1667988815.8,286047004.0,P
1667988835.7,286047003.1,N
1667988855.5,286047005.9,N
1667988875.3,286047005.7,N
1667988895.2,286047000.2,N
1667988915.9,286047004.2,N
1667988935.7,286047011.9,N
1667988955.6,286047000.8,N
1667988975.4,286046991.7,N
1667988995.2,286046989.3,N
1667989015.1,286046990.3,N
1667989016.0,286046990.3,N
1667989035.8,286046993.1,N
1667989055.7,286046997.3,N
1667989075.5,286046993.8,N
1667989095.3,286046994.6,N
1667989115.2,286046996.2,N
1667989135.0,286046996.1,N
1667989135.9,286046996.1,N
1667989155.7,286046991.4,N
1667989175.6,286046985.2,N
1667989195.4,286046984.1,N
1667989215.3,286046987.2,N
1667989235.1,286046990.8,N
1667989236.0,286046990.8,N
1667989255.9,286046990.4,N
1667989275.7,286046999.0,N
1667989295.5,286046994.7,N
1667989315.4,286046985.7,N
1667989335.2,286046983.1,N
1667989355.0,286046974.5,Y
1667989355.9,286046974.5,P
1667989375.8,286046979.0,N
1667989395.6,286046977.4,N
1667989415.5,286046975.2,Y
1667989435.3,286046990.3,P
1667989455.1,286046994.0,N
1667989475.9,286046999.0,N
1667989495.7,286047002.5,N
1667989515.5,286047010.8,N
1667989535.4,286047004.7,N
1667989555.2,286047001.7,N
1667989575.1,286046999.4,N
1667989576.0,286046999.4,N
1667989595.8,286046995.4,N
1667989615.6,286046997.2,N
1667989635.5,286046999.3,N
1667989655.3,286046998.0,N
1667989675.1,286046997.3,N
1667989695.9,286047000.5,N
1667989715.7,286047004.3,N
1667989735.6,286046996.7,N
1667989755.4,286046988.6,N
1667989775.2,286046986.6,N
1667989795.1,286046984.9,N
1667989796.0,286046984.9,N
1667989815.8,286046989.9,N
1667989835.6,286046987.9,N
1667989855.5,286046982.2,N
1667989875.3,286046987.8,N
1667989895.2,286046989.9,N
1667989915.9,286046987.8,N
1667989935.7,286046987.3,N
1667989955.6,286046988.7,N
1667989975.4,286046985.7,N
1667989995.2,286046982.5,N
1667990015.1,286046981.0,N
1667990016.0,286046981.0,N
1667990065.9,286046989.8,E
1667990075.8,286046993.1,N
1667990095.6,286046995.4,P
1667990115.4,286046995.9,P
1667990135.3,286046995.3,Y
1667990155.1,286047001.5,P
1667990175.9,286046996.7,N
1667990195.7,286046992.0,N
1667990215.5,286046988.8,Y
1667990235.4,286046988.5,P
1667990255.2,286046985.6,P
1667990275.0,286046987.5,N
1667990276.0,286046987.5,Y
1667990295.8,286046999.9,P
1667990315.6,286047004.2,N
1667990335.5,286047003.2,N
1667990355.3,286047001.6,N
1667990375.1,286046996.1,N
1667990395.9,286046993.2,N
1667990415.7,286046993.1,N
1667990435.5,286046999.0,N
1667990455.4,286046996.7,N
1667990475.2,286046994.9,N
1667990495.1,286046998.4,N
1667990496.0,286046998.4,N
1667990515.8,286047006.0,N
1667990535.6,286046999.4,N
1667990555.5,286046994.5,N
1667990575.3,286046989.6,N
1667990595.1,286046986.5,N
1667990615.9,286046991.5,N
1667990635.7,286046987.9,N
1667990655.6,286046984.9,N
1667990675.4,286046985.1,N
1667990695.2,286046980.3,Y
1667990715.1,286046980.5,P
1667990716.0,286046980.5,N
1667990735.8,286046983.6,N
1667990755.6,286046977.5,Y
1667990775.5,286046993.8,P
1667990795.3,286046994.5,N
1667990815.2,286046993.8,N
1667990835.9,286046992.3,N
1667990855.7,286046997.8,N
1667990875.6,286046999.5,N
1667990895.4,286046996.1,N
1667990915.2,286046993.3,N
1667990935.1,286046991.8,N
1667990936.0,286046991.8,N
1667990955.8,286046991.3,N
1667990975.7,286046988.8,Y
1667990995.5,286046993.5,P
1667991015.3,286046998.4,P
1667991035.2,286047003.5,N
1667991055.0,286047005.9,N
1667991055.9,286047005.9,N
1667991075.8,286047009.5,N
1667991095.6,286047013.4,N
1667991115.4,286047009.5,N
1667991135.3,286047007.9,N
1667991155.1,286047007.6,N
1667991156.0,286047007.6,N
1667991175.8,286047007.7,N
1667991195.7,286047007.4,N
1667991215.5,286047001.0,N
1667991235.3,286046999.4,N
1667991255.2,286046999.3,N
1667991275.0,286046998.9,N
1667991275.9,286046998.9,N
1667991295.8,286046997.4,N
1667991315.6,286046995.8,N
1667991335.5,286047002.5,N
1667991355.3,286047002.8,N
1667991375.1,286046993.5,N
1667991395.9,286046991.4,N
1667991415.7,286046991.9,N
1667991435.6,286046995.1,N
1667991455.4,286047000.2,N
1667991475.2,286047007.1,N
1667991495.1,286047009.8,N
1667991496.0,286047009.8,N
1667991515.8,286047011.5,N
1667991535.6,286047004.4,N
1667991555.5,286046996.6,N
1667991575.3,286046994.4,N
1667991595.2,286046989.4,N
